Weather History for Ortonville, MN

Change the Weather History Date:

Friday, November 23, 2012

  Actual Average (KAQP) Record (KAQP)
Temperature  
Mean Temperature 16 °F -  
Max Temperature 23 °F 33 °F 53 °F (2006)
Min Temperature 10 °F 17 °F 0 °F (2013)
Degree Days  
Heating Degree Days 48    
Moisture  
Dew Point 10 °F    
Average Humidity 73    
Maximum Humidity 85    
Minimum Humidity 59    
Precipitation  
Precipitation 0.00 in - - ()
Sea Level Pressure  
Sea Level Pressure 30.39 in    
Wind  
Wind Speed 18 mph (NNW)    
Max Wind Speed 30 mph    
Max Gust Speed 39 mph    
Visibility 10 miles    
Events Snow    
Averages and records for this station are not official NWS values.
T = Trace of Precipitation, MM = Missing Value Source: NWS Daily Summary

Daily Weather History Graph

Daily Weather History Graph

Search for Another Location

Airport:

Trip Planner

Search our weather history database for the weather conditions in past years. The results will help you decide how hot, cold, wet, or windy it might be!

Date:

Astronomy

Nov. 23, 2012 Rise Set
Actual Time 7:35 AM CST 4:48 PM CST
Civil Twilight 7:02 AM CST 5:21 PM CST
Nautical Twilight 6:26 AM CST 5:57 PM CST
Astronomical Twilight 5:51 AM CST 6:32 PM CST
Moon 2:13 PM CST (11/23) 2:44 AM CST (11/23)
Length of Visible Light 10h 18m
Length of Day
9h 13m
Waxing Gibbous, 80% of the Moon is Illuminated
Nov 23
Waxing Gibbous
Nov 28
Full
Dec 6
Last Quarter
Dec 13
New
Dec 19
First Quarter

Hourly Weather History & Observations

Time (CST) Temp. Windchill Dew Point Humidity Pressure Visibility Wind Dir Wind Speed Gust Speed Precip Events Conditions
12:14 AM 21.2 °F 5.2 °F 15.8 °F 80% 30.22 in 10.0 mi NW 21.9 mph 32.2 mph N/A   Overcast
12:34 AM 21.2 °F 5.2 °F 14.0 °F 74% 30.23 in 10.0 mi NW 21.9 mph 38.0 mph N/A   Overcast
12:54 AM 21.2 °F 4.9 °F 14.0 °F 74% 30.24 in 10.0 mi NW 23.0 mph 34.5 mph N/A   Overcast
1:34 AM 21.2 °F 5.2 °F 12.2 °F 68% 30.25 in 10.0 mi NNW 21.9 mph 35.7 mph N/A   Mostly Cloudy
1:54 AM 21.2 °F 4.2 °F 12.2 °F 68% 30.26 in 10.0 mi NNW 25.3 mph 33.4 mph N/A   Mostly Cloudy
2:13 AM 19.4 °F 3.2 °F 12.2 °F 74% 30.27 in 10.0 mi NNW 20.7 mph 34.5 mph N/A   Overcast
2:34 AM 19.4 °F 0.5 °F 10.4 °F 68% 30.28 in 10.0 mi NNW 29.9 mph 38.0 mph N/A Snow Light Snow
2:54 AM 19.4 °F 1.4 °F 10.4 °F 68% 30.28 in 10.0 mi NNW 26.5 mph 39.1 mph N/A Snow Light Snow
3:14 AM 19.4 °F 1.1 °F 10.4 °F 68% 30.30 in 10.0 mi NNW 27.6 mph 36.8 mph N/A Snow Light Snow
3:34 AM 19.4 °F 1.8 °F 10.4 °F 68% 30.30 in 10.0 mi NNW 25.3 mph 34.5 mph N/A Snow Light Snow
3:53 AM 19.4 °F 3.6 °F 12.2 °F 74% 30.30 in 10.0 mi NW 19.6 mph 31.1 mph N/A   Overcast
4:14 AM 19.4 °F 2.5 °F 10.4 °F 68% 30.32 in 10.0 mi NW 23.0 mph 35.7 mph N/A Snow Light Snow
4:34 AM 17.6 °F -0.3 °F 10.4 °F 73% 30.32 in 10.0 mi NW 24.2 mph 32.2 mph N/A Snow Light Snow
4:54 AM 17.6 °F -1.3 °F 10.4 °F 73% 30.33 in 10.0 mi NW 27.6 mph 33.4 mph N/A Snow Light Snow
5:14 AM 17.6 °F 0.1 °F 10.4 °F 73% 30.35 in 10.0 mi NNW 23.0 mph 33.4 mph N/A Snow Light Snow
5:34 AM 17.6 °F -0.3 °F 10.4 °F 73% 30.35 in 7.0 mi NW 24.2 mph 31.1 mph N/A Snow Light Snow
6:14 AM 17.6 °F 0.1 °F 10.4 °F 73% 30.37 in 10.0 mi NNW 23.0 mph 28.8 mph N/A Snow Light Snow
6:33 AM 17.6 °F 0.5 °F 10.4 °F 73% 30.38 in 10.0 mi NW 21.9 mph 31.1 mph N/A Snow Light Snow
6:54 AM 17.6 °F 0.9 °F 10.4 °F 73% 30.38 in 7.0 mi NNW 20.7 mph 27.6 mph N/A Snow Light Snow
7:14 AM 17.6 °F 1.7 °F 10.4 °F 73% 30.39 in 10.0 mi NNW 18.4 mph 26.5 mph N/A Snow Light Snow
7:34 AM 17.6 °F 0.5 °F 10.4 °F 73% 30.39 in 10.0 mi NW 21.9 mph 29.9 mph N/A Snow Light Snow
7:54 AM 15.8 °F -1.9 °F 10.4 °F 79% 30.41 in 10.0 mi NW 21.9 mph 31.1 mph N/A Snow Light Snow
8:13 AM 15.8 °F -1.1 °F 8.6 °F 73% 30.41 in 10.0 mi NW 19.6 mph 31.1 mph N/A Snow Light Snow
8:34 AM 15.8 °F -1.1 °F 8.6 °F 73% 30.42 in 10.0 mi NNW 19.6 mph 27.6 mph N/A Snow Light Snow
8:54 AM 17.6 °F 0.9 °F 8.6 °F 68% 30.42 in 10.0 mi NW 20.7 mph 28.8 mph N/A Snow Light Snow
9:13 AM 15.8 °F -1.1 °F 8.6 °F 73% 30.43 in 10.0 mi NW 19.6 mph 26.5 mph N/A   Overcast
9:34 AM 17.6 °F 2.2 °F 10.4 °F 73% 30.44 in 10.0 mi NW 17.3 mph 25.3 mph N/A Snow Light Snow
9:54 AM 15.8 °F -1.1 °F 8.6 °F 73% 30.44 in 10.0 mi NW 19.6 mph 26.5 mph N/A Snow Light Snow
10:13 AM 17.6 °F 1.3 °F 8.6 °F 68% 30.45 in 10.0 mi NW 19.6 mph 25.3 mph N/A Snow Light Snow
10:34 AM 17.6 °F 1.7 °F 8.6 °F 68% 30.45 in 10.0 mi NW 18.4 mph 24.2 mph N/A   Overcast
10:54 AM 17.6 °F 2.2 °F 8.6 °F 68% 30.46 in 10.0 mi NW 17.3 mph 21.9 mph N/A   Overcast
11:14 AM 19.4 °F 5.0 °F 10.4 °F 68% 30.46 in 10.0 mi NNW 16.1 mph 20.7 mph N/A   Overcast
11:34 AM 19.4 °F 4.1 °F 10.4 °F 68% 30.45 in 10.0 mi NW 18.4 mph 23.0 mph N/A   Overcast
11:54 AM 19.4 °F 5.0 °F 10.4 °F 68% 30.45 in 10.0 mi NNW 16.1 mph - N/A   Overcast
12:14 PM 21.2 °F 7.3 °F 10.4 °F 63% 30.44 in 10.0 mi NW 16.1 mph 21.9 mph N/A   Mostly Cloudy
12:34 PM 21.2 °F 7.8 °F 10.4 °F 63% 30.44 in 10.0 mi NNW 15.0 mph 21.9 mph N/A   Scattered Clouds
12:54 PM 21.2 °F 7.3 °F 10.4 °F 63% 30.44 in 10.0 mi NW 16.1 mph 24.2 mph N/A   Mostly Cloudy
1:14 PM 21.2 °F 8.3 °F 10.4 °F 63% 30.43 in 10.0 mi NNW 13.8 mph 21.9 mph N/A   Mostly Cloudy
1:33 PM 21.2 °F 8.3 °F 10.4 °F 63% 30.43 in 10.0 mi NW 13.8 mph - N/A   Clear
1:54 PM 23.0 °F 10.1 °F 10.4 °F 59% 30.43 in 10.0 mi NNW 15.0 mph - N/A   Scattered Clouds
2:14 PM 21.2 °F 10.9 °F 10.4 °F 63% 30.43 in 10.0 mi NW 9.2 mph 20.7 mph N/A   Mostly Cloudy
2:33 PM 23.0 °F 11.1 °F 10.4 °F 59% 30.43 in 10.0 mi NW 12.7 mph - N/A   Mostly Cloudy
2:54 PM 23.0 °F 10.6 °F 10.4 °F 59% 30.43 in 10.0 mi NNW 13.8 mph - N/A   Overcast
3:13 PM 21.2 °F 8.9 °F 10.4 °F 63% 30.43 in 10.0 mi NW 12.7 mph - N/A   Mostly Cloudy
3:34 PM 21.2 °F 8.9 °F 10.4 °F 63% 30.43 in 10.0 mi NW 12.7 mph - N/A   Scattered Clouds
3:53 PM 19.4 °F 7.9 °F 10.4 °F 68% 30.44 in 10.0 mi NW 10.4 mph - N/A   Scattered Clouds
4:14 PM 19.4 °F 7.9 °F 10.4 °F 68% 30.44 in 10.0 mi NNW 10.4 mph - N/A   Scattered Clouds
4:34 PM 19.4 °F 7.2 °F 8.6 °F 63% 30.44 in 10.0 mi NNW 11.5 mph - N/A   Clear
4:53 PM 17.6 °F 6.4 °F 8.6 °F 68% 30.43 in 10.0 mi NNW 9.2 mph - N/A   Clear
5:14 PM 17.6 °F 6.4 °F 8.6 °F 68% 30.43 in 10.0 mi NNW 9.2 mph - N/A   Clear
5:33 PM 15.8 °F 4.2 °F 8.6 °F 73% 30.43 in 10.0 mi North 9.2 mph - N/A   Clear
5:54 PM 15.8 °F 5.1 °F 8.6 °F 73% 30.43 in 10.0 mi North 8.1 mph - N/A   Clear
6:14 PM 15.8 °F 5.1 °F 8.6 °F 73% 30.43 in 10.0 mi North 8.1 mph - N/A   Clear
6:33 PM 14.0 °F 2.9 °F 8.6 °F 79% 30.43 in 10.0 mi North 8.1 mph - N/A   Clear
6:54 PM 12.2 °F 0.7 °F 8.6 °F 85% 30.42 in 10.0 mi North 8.1 mph - N/A   Clear
7:14 PM 12.2 °F 2.9 °F 8.6 °F 85% 30.42 in 10.0 mi North 5.8 mph - N/A   Clear
7:33 PM 12.2 °F -0.2 °F 8.6 °F 85% 30.41 in 10.0 mi North 9.2 mph - N/A   Clear
7:54 PM 12.2 °F 2.9 °F 8.6 °F 85% 30.41 in 10.0 mi North 5.8 mph - N/A   Clear
8:14 PM 12.2 °F 4.3 °F 6.8 °F 79% 30.40 in 10.0 mi North 4.6 mph - N/A   Clear
8:33 PM 10.4 °F 0.8 °F 6.8 °F 85% 30.40 in 10.0 mi North 5.8 mph - N/A   Clear
8:54 PM 10.4 °F 4.0 °F 6.8 °F 85% 30.39 in 10.0 mi NW 3.5 mph - N/A   Clear
9:14 PM 12.2 °F 6.1 °F 6.8 °F 79% 30.39 in 10.0 mi North 3.5 mph - N/A   Clear
9:33 PM 10.4 °F - 6.8 °F 85% 30.40 in 10.0 mi Calm Calm - N/A   Clear
9:54 PM 10.4 °F 4.0 °F 6.8 °F 85% 30.40 in 10.0 mi North 3.5 mph - N/A   Clear
10:13 PM 10.4 °F - 6.8 °F 85% 30.39 in 10.0 mi Calm Calm - N/A   Clear
10:34 PM 10.4 °F 4.0 °F 6.8 °F 85% 30.39 in 10.0 mi North 3.5 mph - N/A   Clear
10:54 PM 10.4 °F 4.0 °F 6.8 °F 85% 30.38 in 10.0 mi North 3.5 mph - N/A   Clear
11:13 PM 10.4 °F 4.0 °F 6.8 °F 85% 30.37 in 10.0 mi North 3.5 mph - N/A   Clear
11:34 PM 10.4 °F - 6.8 °F 85% 30.37 in 10.0 mi Calm Calm - N/A   Clear
11:54 PM 10.4 °F - 6.8 °F 85% 30.36 in 10.0 mi Calm Calm - N/A   Clear